#timestamp,LO_Frequency,Hit,StdDev 
1648602015.5,286046998.8,N
1648602035.3,286046998.3,N
1648602055.2,286046998.8,N
1648602075.0,286046999.3,N
1648602075.9,286046999.3,N
1648602095.8,286046999.3,N
1648602115.6,286046998.5,N
1648602135.4,286047000.8,N
1648602155.3,286047000.8,N
1648602175.1,286046998.1,N
1648602195.9,286047001.2,N
1648602215.7,286046998.5,N
1648602235.5,286046998.8,N
1648602255.4,286046998.6,N
1648602275.2,286046999.4,N
1648602295.1,286046996.6,Y
1648602296.0,286046996.6,P
1648602315.8,286046998.2,N
1648602335.6,286047001.0,N
1648602355.5,286047000.6,N
1648602375.3,286046998.2,N
1648602395.1,286047000.5,N
1648602415.9,286047002.2,N
1648602435.7,286047002.6,N
1648602455.6,286047000.8,N
1648602475.4,286046998.7,N
1648602495.2,286046999.0,N
1648602515.1,286046998.4,N
1648602516.0,286046998.4,N
1648602535.8,286047000.8,N
1648602555.7,286047000.9,N
1648602575.5,286047000.4,N
1648602595.3,286046997.0,N
1648602615.2,286046997.7,N
1648602635.0,286046996.8,N
1648602635.9,286046996.8,N
1648602655.8,286046996.6,N
1648602675.6,286046998.9,N
1648602695.4,286046998.3,N
1648602715.3,286046998.4,N
1648602735.1,286046998.3,N
1648602755.8,286047001.2,N
1648602775.7,286047000.0,N
1648602795.5,286047002.7,N
1648602815.4,286047002.7,N
1648602835.2,286047002.5,N
1648602855.0,286047000.1,N
1648602855.9,286047000.1,N
1648602875.8,286047000.1,N
1648602895.6,286047002.4,N
1648602915.4,286047000.1,N
1648602935.3,286047001.1,N
1648602955.1,286047002.5,N
1648602975.9,286047002.1,N
1648602995.7,286047001.9,N
1648603015.5,286047003.5,N
1648603035.4,286047001.9,N
1648603055.2,286047002.2,N
1648603075.1,286047000.9,N
1648603076.0,286047000.9,N
1648603095.8,286047001.1,N
1648603115.6,286046998.2,N
1648603135.5,286047000.8,N
1648603155.3,286046999.8,N
1648603175.2,286047002.3,N
1648603195.9,286047002.0,N
1648603215.7,286047002.0,N
1648603235.6,286046999.8,N
1648603255.4,286046999.9,N
1648603275.2,286047002.3,N
1648603295.1,286047002.7,N
1648603296.0,286047002.7,N
1648603315.8,286047002.3,N
1648603335.7,286047001.9,N
1648603355.5,286047002.1,N
1648603375.3,286047000.6,N
1648603395.2,286047001.2,N
1648603415.0,286046999.8,N
1648603415.9,286046999.8,N
1648603435.7,286047002.5,N
1648603455.6,286047003.8,Y
1648603475.4,286047001.4,P
1648603495.3,286047001.9,P
1648603515.1,286047002.3,P
1648603535.8,286047002.3,Y
1648603555.7,286047001.2,P
1648603575.5,286047000.4,N
1648603595.4,286047000.0,N
1648603615.2,286047000.1,N
1648603635.0,286046998.5,N
1648603635.9,286046998.5,N
1648603655.8,286046999.0,N
1648603675.6,286046998.9,N
1648603695.5,286046998.1,N
1648603715.3,286046998.8,N
1648603735.1,286046999.4,N
1648603755.9,286047001.2,N
1648603775.7,286047000.3,N
1648603795.5,286047000.2,N
1648603815.4,286047000.6,N
1648603835.2,286046999.7,N
1648603855.1,286046999.9,N
1648603856.0,286046999.9,N
1648603875.8,286047002.8,N
1648603895.6,286047002.3,N
1648603915.5,286047002.7,N
1648603935.3,286047002.7,N
1648603955.1,286047000.1,N
1648603975.9,286047000.9,N
1648603995.7,286047000.4,N
1648604015.6,286047002.5,N
1648604035.4,286047002.6,N
1648604055.2,286047002.3,N
1648604075.1,286047000.3,N
1648604076.0,286047000.3,N
1648604095.8,286047000.0,N
1648604115.7,286047001.8,N
1648604135.5,286047001.7,N
1648604155.3,286047002.3,N
1648604175.2,286047001.9,N
1648604195.0,286047003.0,N
1648604195.9,286047003.0,N
1648604215.8,286047003.6,N
1648604235.6,286047001.8,N
1648604255.4,286047002.4,N
1648604275.3,286047002.2,N
1648604295.1,286047002.5,N
1648604315.9,286047002.6,N
1648604335.7,286047002.1,N
1648604355.5,286047001.3,N
1648604375.4,286047002.1,N
1648604395.2,286047002.6,N
1648604415.0,286047002.7,N
1648604415.9,286047002.7,N
1648604435.8,286047002.8,N
1648604455.6,286047002.7,N
1648604475.5,286047002.6,N
1648604495.3,286047004.3,Y
1648604515.1,286047001.1,P
1648604535.9,286046998.9,N
1648604555.7,286046998.5,N
1648604575.5,286047000.8,N
1648604595.4,286046999.5,N
1648604615.2,286046999.1,N
1648604635.1,286047000.4,N
1648604636.0,286047000.4,N
1648604655.8,286047001.0,N
1648604675.6,286047002.7,N
1648604695.5,286046999.9,N
1648604715.3,286047001.0,N
1648604735.2,286046998.3,N
1648604755.9,286046999.4,N
1648604775.7,286046999.4,N
1648604795.6,286046998.7,N
1648604815.4,286046999.6,N
1648604835.3,286046997.2,N
1648604855.1,286046999.0,N
1648604856.0,286046999.0,N
1648604875.8,286046996.9,N
1648604895.7,286046998.6,N
1648604915.5,286046998.6,N
1648604935.3,286046999.2,N
1648604955.2,286046999.1,N
1648604975.0,286046998.8,N
1648604975.9,286046998.8,N
1648604995.8,286046999.8,N
1648605015.6,286047000.4,N
1648605035.4,286046998.1,N
1648605055.3,286047000.8,N
1648605075.1,286046998.6,N
1648605095.9,286046998.5,N
1648605115.7,286046998.3,N
1648605135.5,286046999.2,N
1648605155.4,286046998.6,N
1648605175.2,286047000.5,N
1648605195.0,286046998.2,N
1648605195.9,286046998.2,N
1648605215.8,286046998.4,N
1648605235.6,286046998.9,N
1648605255.5,286046999.3,N
1648605275.3,286046999.9,N
1648605295.1,286046998.2,N
1648605315.9,286047001.2,N
1648605335.7,286047000.9,N
1648605355.6,286046998.2,N
1648605375.4,286046998.3,N
1648605395.2,286046998.2,N
1648605415.1,286046998.7,N
1648605416.0,286046998.7,N
1648605435.8,286046998.4,N
1648605455.6,286047001.5,N
1648605475.5,286047001.9,N
1648605495.3,286047002.5,N
1648605515.2,286046999.9,N
1648605535.9,286047000.1,N
1648605555.7,286047000.1,N
1648605575.6,286047003.8,N
1648605595.4,286047001.4,N
